Terminal Aerodrome Forecast
Issued by NWS Columbia, SC

Home | Current Version | Previous Version | Text Only | Print | Product List | Glossary On
Versions: 1 2 3 4 5 6 7 8 9 10 11 12 13 14 15 16 17 18 19 20 21 22 23 24 25 26 27 28 29 30 31 32 33 34 35 36 37 38 39 40 41 42 43 44 45 46 47 48 49 50
000
FTUS42 KCAE 020755 AAA
TAFAGS
TAF AMD
KAGS 020755Z 0208/0306 00000KT 5SM BR BKN002 BKN100
      TEMPO 0208/0212 3/4SM BR OVC002
     FM021400 25004KT P6SM BKN150
     FM021700 19006KT P6SM VCTS SCT030CB BKN050
     FM030300 VRB04KT P6SM SCT050 BKN100=

USA.gov is the U.S. government's official web portal to all federal, state and local government web resources and services.